Weather History for Winslow, AZ

Change the Weather History Date:

Wednesday, December 5, 2012

  Actual Average Record
Temperature  
Mean Temperature 50 °F 36 °F  
Max Temperature 72 °F 51 °F 72 °F (2012)
Min Temperature 28 °F 22 °F 3 °F (2005)
Degree Days  
Heating Degree Days 15 29  
Month to date heating degree days 79 140  
Since 1 July heating degree days 843 1076  
Cooling Degree Days 0 0  
Month to date cooling degree days 0 0  
Year to date cooling degree days 1442 1208  
Moisture  
Dew Point 18 °F    
Average Humidity 39    
Maximum Humidity 63    
Minimum Humidity 15    
Precipitation  
Precipitation 0.00 in 0.02 in 0.39 in (1926)
Month to date precipitation 0.00 0.09  
Year to date precipitation 5.14 6.54  
Sea Level Pressure  
Sea Level Pressure 30.15 in    
Wind  
Wind Speed 4 mph (ESE)    
Max Wind Speed 12 mph    
Max Gust Speed 15 mph    
Visibility 10 miles    
Events      
T = Trace of Precipitation, MM = Missing Value Source: NWS Daily Summary

Daily Weather History Graph

Daily Weather History Graph

Search for Another Location

Airport:

Trip Planner

Search our weather history database for the weather conditions in past years. The results will help you decide how hot, cold, wet, or windy it might be!

Date:

Astronomy

Dec. 05, 2012 Rise Set
Actual Time 7:16 AM MST 5:10 PM MST
Civil Twilight 6:48 AM MST 5:38 PM MST
Nautical Twilight 6:17 AM MST 6:10 PM MST
Astronomical Twilight 5:46 AM MST 6:41 PM MST
Moon 11:52 PM MST (12/5) 11:52 AM MST (12/5)
Length of Visible Light 10h 50m
Length of Day
9h 54m
Waning Gibbous, 59% of the Moon is Illuminated
Dec 5
Waning Gibbous
Dec 6
Last Quarter
Dec 13
New
Dec 19
First Quarter
Dec 28
Full

Hourly Weather History & Observations

Time (MST) Temp. Windchill Dew Point Humidity Pressure Visibility Wind Dir Wind Speed Gust Speed Precip Events Conditions
12:56 AM 35.1 °F 32.2 °F 19.0 °F 52% 30.28 in 10.0 mi East 3.5 mph - N/A   Clear
1:56 AM 32.0 °F 28.7 °F 17.1 °F 54% 30.28 in 10.0 mi South 3.5 mph - N/A   Clear
2:56 AM 30.0 °F - 16.0 °F 56% 30.29 in 10.0 mi Calm Calm - N/A   Clear
3:56 AM 30.0 °F 25.2 °F 17.1 °F 59% 30.27 in 10.0 mi SE 4.6 mph - N/A   Clear
4:56 AM 32.0 °F 26.4 °F 19.4 °F 60% 30.30 in 10.0 mi SSE 5.8 mph - N/A   Clear
5:56 AM 30.0 °F 21.7 °F 17.1 °F 59% 30.28 in 10.0 mi ESE 9.2 mph - N/A   Clear
7:56 AM 32.0 °F 24.8 °F 18.0 °F 56% 30.32 in 10.0 mi SSE 8.1 mph - N/A   Clear
8:56 AM 37.0 °F 31.0 °F 17.1 °F 44% 30.30 in 10.0 mi ESE 8.1 mph - N/A   Clear
9:56 AM 42.1 °F 36.6 °F 18.0 °F 38% 30.27 in 10.0 mi ESE 9.2 mph - N/A   Clear
10:56 AM 48.9 °F - 19.9 °F 32% 30.23 in 10.0 mi East 6.9 mph - N/A   Clear
11:56 AM 55.0 °F - 21.0 °F 27% 30.16 in 10.0 mi ESE 5.8 mph - N/A   Clear
12:56 PM 61.0 °F - 21.9 °F 22% 30.09 in 10.0 mi East 6.9 mph - N/A   Clear
1:56 PM 66.9 °F - 21.9 °F 18% 30.04 in 10.0 mi ESE 5.8 mph - N/A   Clear
2:56 PM 69.1 °F - 19.9 °F 15% 30.01 in 10.0 mi Calm Calm - N/A   Clear
3:56 PM 70.0 °F - 19.0 °F 14% 30.00 in 10.0 mi Calm Calm - N/A   Clear
4:56 PM 64.0 °F - 19.0 °F 18% 30.02 in 10.0 mi Calm Calm - N/A   Clear
5:56 PM 55.9 °F - 15.1 °F 20% 30.05 in 10.0 mi WNW 8.1 mph - N/A   Clear
6:56 PM 54.0 °F - 17.1 °F 23% 30.06 in 10.0 mi WNW 4.6 mph - N/A   Clear
7:56 PM 48.0 °F - 15.1 °F 27% 30.08 in 10.0 mi Calm Calm - N/A   Clear
8:56 PM 46.0 °F - 16.0 °F 30% 30.06 in 10.0 mi Calm Calm - N/A   Clear
9:56 PM 46.9 °F - 17.1 °F 30% 30.04 in 10.0 mi NE 5.8 mph - N/A   Clear
10:56 PM 39.9 °F - 15.1 °F 36% 30.04 in 10.0 mi Calm Calm - N/A   Clear
11:56 PM 39.0 °F 36.8 °F 16.0 °F 39% 30.01 in 10.0 mi West 3.5 mph - N/A   Clear